Location: Unspecified
(29.9680°N, 0.0000°E)
Time: 21:51:15
(UTC+00:00)

A-11 Canister half - Pass Details

Date: 20 June 2019
Orbit: 1526 x 1683 km, 47.3° (Epoch: 17 July)

Event Time Altitude Azimuth Distance (km) Brightness Sun altitude
Rises 01:21:42 0° 172° (S) 4,808 - -33.2°
Reaches altitude 10° 01:27:26 10° 146° (SE) 3,788 - -32.7°
Exits shadow 01:29:42 12° 132° (SE) 3,594 10.7 -32.6°
Maximum altitude 01:31:03 13° 123° (ESE) 3,556 10.8 -32.4°
Drops below altitude 10° 01:34:38 10° 100° (E) 3,747 11.2 -32.1°
Sets 01:40:09 0° 74° (ENE) 4,706 12.1 -31.6°
